Location: Ceske Budejovice
(48.9830°N, 14.4670°E)
Time: 12:08:23
(UTC+02:00)

ISS - Pass Details

Date: 25 March 2019
Orbit: 408 x 410 km, 51.6° (Epoch: 25 April)

Event Time Altitude Azimuth Distance (km) Brightness Sun altitude
Rises 20:12:51 0° 257° (WSW) 2,331 0.9 -18.3°
Reaches altitude 10° 20:14:56 10° 260° (W) 1,471 -0.2 -18.6°
Maximum altitude 20:18:14 70° 344° (NNW) 437 -3.7 -19.1°
Enters shadow 20:18:44 57° 42° (NE) 488 -3.6 -19.2°
